FW7026 Weather Reports


Display with metric or nautical units.
time (UTC)temp
F
wind
direction
speed
MPH
gust
MPH
rain 1hr
in
rain 24hr
in
rain mn
in
humidity
%
barometer
mb
20260504231115 47 272 0.0 0.0 0.00 0.00 0.00 59 1001.2
20260504230611 47 194 0.0 0.0 0.00 0.00 0.00 59 1001.2
20260504230110 47 148 0.0 0.0 0.00 0.00 0.00 59 1001.2
20260504225607 47 194 0.0 0.0 0.00 0.00 0.00 59 1001.2
20260504225104 47 252 0.0 0.0 0.00 0.00 0.00 58 1001.2
20260504224600 48 234 0.0 0.0 0.00 0.00 0.00 58 1001.2
20260504224057 48 244 0.0 0.0 0.00 0.00 0.00 58 1001.2
20260504223554 48 238 0.0 0.0 0.00 0.00 0.00 58 1001.2
20260504223050 48 174 0.0 0.0 0.00 0.00 0.00 58 1000.9
20260504222547 48 300 0.0 0.0 0.00 0.00 0.00 58 1000.9
20260504222044 48 240 0.0 0.0 0.00 0.00 0.00 59 1000.9
20260504221542 48 238 0.0 0.0 0.00 0.00 0.00 59 1000.9
20260504221038 48 231 0.0 0.0 0.00 0.00 0.00 58 1000.9
20260504220535 48 214 0.0 0.0 0.00 0.00 0.00 58 1000.9
20260504220032 48 144 0.0 0.0 0.00 0.00 0.00 59 1000.9
20260504215528 48 239 0.0 0.0 0.00 0.00 0.00 58 1000.9
20260504215026 49 265 0.0 0.0 0.00 0.00 0.00 57 1000.9
20260504214522 49 195 0.0 0.0 0.00 0.00 0.00 58 1000.9
20260504214018 48 245 0.0 0.0 0.00 0.00 0.00 59 1000.9
20260504213514 48 267 0.0 0.0 0.00 0.00 0.00 58 1000.9
20260504213012 49 304 0.0 0.0 0.00 0.00 0.00 56 1000.9
20260504212508 50 308 0.0 2.0 0.00 0.00 0.00 55 1000.9
20260504212005 50 220 0.0 0.0 0.00 0.00 0.00 55 1000.4
20260504211502 51 239 0.0 0.0 0.00 0.00 0.00 55 1000.4
20260504210959 50 260 0.0 5.0 0.00 0.00 0.00 54 1000.4
20260504210456 51 146 0.0 0.0 0.00 0.00 0.00 55 1000.4
20260504205953 50 263 0.0 0.0 0.00 0.00 0.00 55 1000.4
20260504205450 50 250 0.0 0.0 0.00 0.00 0.00 56 1000.4
20260504204948 51 271 0.0 0.0 0.00 0.00 0.00 54 1000.4
20260504204446 51 195 0.0 0.0 0.00 0.00 0.00 55 1000.1
20260504203945 50 185 0.0 0.0 0.00 0.00 0.00 55 1000.4
20260504203443 49 220 0.0 2.0 0.00 0.00 0.00 55 1000.4
20260504202938 50 285 0.0 0.0 0.00 0.00 0.00 53 1000.4
20260504202435 50 265 0.0 0.0 0.00 0.00 0.00 53 1000.4
20260504201932 51 221 0.0 5.0 0.00 0.00 0.00 52 1000.4
20260504201429 51 222 0.0 0.0 0.00 0.00 0.00 52 1000.4
20260504200927 51 256 0.0 2.0 0.00 0.00 0.00 52 1000.4
20260504200423 51 251 0.0 0.0 0.00 0.00 0.00 52 1000.4
20260504195920 52 206 0.0 0.0 0.00 0.00 0.00 52 1000.4
20260504195416 49 254 0.0 0.0 0.00 0.00 0.00 55 1000.4
20260504194913 50 138 0.0 2.0 0.00 0.00 0.00 54 1000.4
20260504194408 49 200 0.0 0.0 0.00 0.00 0.00 58 1000.9
20260504193905 48 188 0.0 0.0 0.00 0.00 0.00 57 1000.4
20260504193402 48 236 0.0 2.0 0.00 0.00 0.00 58 1000.9
20260504192901 47 177 0.0 0.0 0.00 0.00 0.00 58 1000.9
20260504192358 47 234 0.0 0.0 0.00 0.00 0.00 58 1000.4
20260504191856 47 128 0.0 2.0 0.00 0.00 0.00 57 1000.4
20260504191354 47 167 0.0 0.0 0.00 0.00 0.00 57 1000.4
20260504190849 48 255 0.0 2.0 0.00 0.00 0.00 53 1000.9
20260504190345 49 119 0.0 0.0 0.00 0.00 0.00 53 1000.9
20260504185842 49 173 0.0 0.0 0.00 0.00 0.00 52 1000.9
20260504185339 49 235 0.0 0.0 0.00 0.00 0.00 51 1000.9
20260504184835 49 191 0.0 0.0 0.00 0.00 0.00 49 1000.9
20260504184331 49 217 0.0 0.0 0.00 0.00 0.00 48 1000.9
20260504183827 50 306 0.0 0.0 0.00 0.00 0.00 47 1000.9
20260504183324 50 274 0.0 0.0 0.00 0.00 0.00 43 1000.4
20260504182822 50 148 0.0 0.0 0.00 0.00 0.00 43 1000.4
20260504182319 50 225 0.0 0.0 0.00 0.00 0.00 41 1000.4
20260504181816 51 258 0.0 0.0 0.00 0.00 0.00 39 1000.9
20260504181314 51 282 0.0 0.0 0.00 0.00 0.00 39 1000.4
20260504180813 50 275 0.0 0.0 0.00 0.00 0.00 39 1000.4
20260504180311 50 5 0.0 0.0 0.00 0.00 0.00 39 1000.4
20260504175808 50 275 0.0 0.0 0.00 0.00 0.00 38 1000.4
20260504175305 50 230 0.0 0.0 0.00 0.00 0.00 39 1000.4
20260504174803 51 227 0.0 0.0 0.00 0.00 0.00 37 1000.4
20260504174300 53 283 0.0 10.0 0.00 0.00 0.00 34 1000.4
20260504173757 53 257 0.0 0.0 0.00 0.00 0.00 30 1000.1
20260504173254 54 216 0.0 5.0 0.00 0.00 0.00 29 1000.1
20260504172750 55 354 0.0 0.0 0.00 0.00 0.00 31 999.8
20260504172247 55 227 0.0 0.0 0.00 0.00 0.00 32 999.8
20260504171743 56 175 0.0 0.0 0.00 0.00 0.00 30 999.8
20260504171240 56 197 0.0 2.0 0.00 0.00 0.00 31 999.8
20260504170737 56 237 9.0 13.0 0.00 0.00 0.00 28 999.8
20260504170235 56 290 0.0 0.0 0.00 0.00 0.00 29 999.8
20260504160153 56 110 0.0 0.0 0.00 0.00 0.00 30 999.8
20260504151121 54 292 0.0 0.0 0.00 0.00 0.00 32 1000.4
20260504150618 54 291 0.0 0.0 0.00 0.00 0.00 30 1000.4
20260504150115 53 120 0.0 0.0 0.00 0.00 0.00 34 1000.9
20260504141044 51 72 0.0 0.0 0.00 0.00 0.00 39 1000.9
20260504140540 50 173 0.0 0.0 0.00 0.00 0.00 37 1000.9
20260504130504 47 256 0.0 0.0 0.00 0.00 0.00 46 1001.2
20260504110346 37 300 0.0 0.0 0.00 0.00 0.00 75 1001.2
20260504100303 32 248 0.0 0.0 0.00 0.00 0.00 83 1001.2
20260504081656 32 149 0.0 0.0 0.00 0.00 0.00 84 1000.1
20260504081153 32 180 0.0 0.0 0.00 0.00 0.00 84 1000.4
20260504080649 32 308 0.0 0.0 0.00 0.00 0.00 84 1000.1
20260504080145 32 205 0.0 0.0 0.00 0.00 0.00 84 1000.1
20260504070114 33 257 0.0 0.0 0.00 0.00 0.00 84 1000.1
20260504050502 34 281 0.0 0.0 0.00 0.00 0.00 86 1000.4
20260504045959 34 105 0.0 0.0 0.00 0.00 0.00 86 1000.4
20260504045455 34 236 0.0 0.0 0.00 0.00 0.00 86 1000.1
20260504044951 34 171 0.0 0.0 0.00 0.00 0.00 86 1000.4
20260504044449 34 267 0.0 0.0 0.00 0.00 0.00 86 1000.4
20260504043946 34 238 0.0 0.0 0.00 0.00 0.00 87 1000.4
20260504043443 34 41 0.0 0.0 0.00 0.00 0.00 86 1000.4
20260504042940 34 326 0.0 0.0 0.00 0.00 0.00 87 1000.4
20260504042437 35 314 0.0 0.0 0.00 0.00 0.00 88 1000.4
20260504041934 35 40 0.0 0.0 0.00 0.00 0.00 88 1000.4
20260504041430 35 334 0.0 0.0 0.00 0.00 0.00 89 1000.4
20260504040926 35 241 0.0 0.0 0.00 0.00 0.00 89 1000.4
20260504040424 35 176 0.0 0.0 0.00 0.00 0.00 89 1000.9
20260504035920 35 157 0.0 0.0 0.00 0.34 0.34 90 1000.4
20260504035417 35 170 0.0 0.0 0.00 0.34 0.34 90 1000.9
20260504034913 36 263 0.0 0.0 0.00 0.34 0.34 90 1000.9
20260504034411 36 191 0.0 0.0 0.00 0.34 0.34 90 1000.4
20260504033908 36 157 0.0 0.0 0.00 0.34 0.34 91 1000.4
20260504033406 36 335 0.0 0.0 0.00 0.34 0.34 91 1000.4
20260504032903 36 128 0.0 0.0 0.00 0.34 0.34 91 1000.4
20260504032400 36 165 0.0 0.0 0.00 0.34 0.34 91 1000.4
20260504031856 36 192 0.0 0.0 0.00 0.34 0.34 91 1000.4
20260504031353 36 274 0.0 0.0 0.00 0.34 0.34 92 1000.4
20260504030850 37 251 0.0 0.0 0.00 0.34 0.34 92 1000.4
20260504030347 37 158 0.0 0.0 0.00 0.34 0.34 92 1000.4
20260504025843 37 32 0.0 0.0 0.00 0.34 0.34 92 1000.4
20260504025340 37 269 0.0 0.0 0.00 0.34 0.34 92 1000.4
20260504024837 38 259 0.0 0.0 0.00 0.34 0.34 92 1000.4
20260504024333 38 240 0.0 0.0 0.00 0.34 0.34 92 1000.4
20260504023830 38 224 0.0 0.0 0.00 0.34 0.34 92 1000.4
20260504023327 38 197 0.0 0.0 0.00 0.34 0.34 92 1000.4
20260504022822 38 184 0.0 0.0 0.00 0.34 0.34 92 1000.4
20260504022320 38 1 0.0 0.0 0.00 0.34 0.34 92 1000.4
20260504021816 38 220 0.0 0.0 0.00 0.34 0.34 92 1000.4
20260504021314 38 14 0.0 0.0 0.00 0.34 0.34 92 1000.4
20260504020810 38 242 0.0 0.0 0.00 0.34 0.34 92 1000.4
20260504020307 39 196 0.0 0.0 0.00 0.34 0.34 92 1000.4
20260504015757 39 83 0.0 0.0 0.00 0.34 0.34 92 1000.4
20260504015254 39 189 0.0 0.0 0.00 0.34 0.34 92 1000.4
20260504014750 39 35 0.0 0.0 0.00 0.34 0.34 92 1000.4
20260504014246 39 1 0.0 0.0 0.00 0.34 0.34 92 1000.9
20260504013744 39 16 0.0 0.0 0.00 0.34 0.34 92 1000.9
20260504013242 39 49 0.0 0.0 0.00 0.34 0.34 92 1000.9
20260504012738 39 23 0.0 0.0 0.00 0.34 0.34 92 1000.9
20260504012236 39 260 0.0 0.0 0.00 0.34 0.34 92 1000.9
20260504011732 39 63 0.0 0.0 0.00 0.34 0.34 92 1000.9
20260504011229 39 357 0.0 0.0 0.00 0.34 0.34 92 1000.9
20260504010725 40 359 0.0 0.0 0.00 0.34 0.34 92 1000.9
20260504010221 40 353 0.0 0.0 0.00 0.34 0.34 92 1000.9
20260504005718 40 24 0.0 0.0 0.00 0.34 0.34 92 1000.9
20260504005215 40 66 0.0 0.0 0.00 0.34 0.34 92 1000.9
20260504004712 40 307 0.0 0.0 0.00 0.34 0.34 92 1000.9
20260504004209 40 6 0.0 0.0 0.00 0.34 0.34 92 1000.4
20260504003706 40 6 0.0 0.0 0.00 0.34 0.34 92 1000.4
20260504003203 40 179 0.0 0.0 0.00 0.34 0.34 92 1000.4
20260504002700 40 354 0.0 0.0 0.00 0.34 0.34 92 1000.4
20260504002157 40 6 0.0 0.0 0.00 0.34 0.34 92 1000.4
20260504001655 40 5 0.0 0.0 0.00 0.34 0.34 92 1000.4
20260504001151 40 333 0.0 0.0 0.00 0.34 0.34 92 1000.4
20260504000648 40 2 0.0 2.0 0.00 0.34 0.34 92 1000.4
20260504000145 40 24 0.0 0.0 0.00 0.34 0.34 92 1000.4
20260503235643 40 348 0.0 0.0 0.00 0.34 0.34 92 1000.4
20260503235139 40 2 0.0 0.0 0.00 0.34 0.34 92 1000.4
20260503234638 40 8 0.0 0.0 0.00 0.34 0.34 92 1000.4
20260503234136 40 43 0.0 0.0 0.00 0.34 0.34 92 1000.4
20260503233632 40 10 0.0 0.0 0.00 0.34 0.34 92 1000.4
20260503233128 40 358 0.0 0.0 0.00 0.34 0.34 92 1000.4
20260503232625 40 348 0.0 0.0 0.00 0.34 0.34 92 1000.4
20260503232122 40 40 0.0 0.0 0.00 0.34 0.34 92 1000.1
20260503231620 40 25 0.0 0.0 0.07 0.34 0.34 92 1000.4